| time (UTC) | temp F | wind direction | speed knots | gust knots | rain 1hr in | rain 24hr in | rain mn in | humidity % | barometer mb |
| 20260507051712 | 43 | 240 | 7.8 | 0.0 | 0.00 | 0.00 | 0.00 | 86 | |
| 20260507041914 | 41 | 240 | 6.1 | 0.0 | 0.00 | 0.00 | 0.00 | 93 | |
| 20260507031712 | 43 | 230 | 7.8 | 0.0 | 0.00 | 0.00 | 0.00 | 93 | |
| 20260507021711 | 43 | 230 | 7.8 | 0.0 | 0.00 | 0.00 | 0.00 | 93 | |
| 20260507011811 | 43 | 230 | 12.2 | 22.6 | 0.00 | 0.00 | 0.00 | 93 | |
| 20260507001713 | 45 | 240 | 10.4 | 0.0 | 0.00 | 0.00 | 0.00 | 93 | |
| 20260506231712 | 46 | 230 | 10.4 | 0.0 | 0.00 | 0.00 | 0.00 | 93 | |
| 20260506221912 | 46 | 230 | 10.4 | 0.0 | 0.00 | 0.00 | 0.00 | 93 | |
| 20260506211717 | 45 | 230 | 12.2 | 0.0 | 0.00 | 0.00 | 0.00 | 93 | |
| 20260506201713 | 46 | 200 | 4.3 | 0.0 | 0.00 | 0.00 | 0.00 | 93 | |
| 20260506191728 | 45 | 200 | 4.3 | 0.0 | 0.00 | 0.00 | 0.00 | 99 | |
| 20260506181728 | 46 | 260 | 13.9 | 28.7 | 0.00 | 0.00 | 0.00 | 93 | |
| 20260506171712 | 55 | 0 | 4.3 | 0.0 | 0.00 | 0.00 | 0.00 | 71 | |
| 20260506161912 | 57 | 350 | 4.3 | 0.0 | 0.00 | 0.00 | 0.00 | 67 | |
| 20260506151712 | 59 | 340 | 6.1 | 0.0 | 0.00 | 0.00 | 0.00 | 62 | |
| 20260506141713 | 61 | 0 | 1.7 | 0.0 | 0.00 | 0.00 | 0.00 | 44 | |
| 20260506131713 | 61 | 170 | 6.1 | 0.0 | 0.00 | 0.00 | 0.00 | 44 | |
| 20260506121712 | 63 | 200 | 6.1 | 15.6 | 0.00 | 0.00 | 0.00 | 39 | |
| 20260506111713 | 64 | 170 | 6.1 | 0.0 | 0.00 | 0.00 | 0.00 | 39 | |
| 20260506101913 | 59 | 0 | 4.3 | 0.0 | 0.00 | 0.00 | 0.00 | 47 | |
| 20260506091712 | 57 | 180 | 6.1 | 0.0 | 0.00 | 0.00 | 0.00 | 47 | |
| 20260506081712 | 55 | 230 | 4.3 | 0.0 | 0.00 | 0.00 | 0.00 | 58 | |
| 20260506071712 | 54 | 230 | 6.1 | 0.0 | 0.00 | 0.00 | 0.00 | 62 | |
| 20260506061713 | 50 | 230 | 10.4 | 0.0 | 0.00 | 0.00 | 0.00 | 76 |